Location: Marne
(34.0056°N, 117.9064°W)
Time: 16:35:37
(UTC+00:00)

ERBS - Pass Details

Date: 18 January 2020
Orbit: 413 x 426 km, 57.0° (Epoch: 27 February)

Event Time Altitude Azimuth Distance (km) Brightness Sun altitude
Rises 02:11:41 0° 205° (SSW) 2,342 6.7 -13.4°
Reaches altitude 10° 02:13:49 10° 199° (SSW) 1,481 5.5 -13.8°
Maximum altitude 02:16:58 44° 126° (SE) 583 2.6 -14.4°
Enters shadow 02:18:05 31° 76° (ENE) 751 2.9 -14.6°
